Weather in Novoselye

Russia / Pskov Oblast     58°06′38″N   28°52′42″E
temp.,
°C
wind,
m/s
gust,
m/s
humid.,
%
clouds,
%
prec.,
mm/h
press.,
hPa
HPBL,
m
8 march, mon
mon800:00−8nw411841 0.0 999401
03:00−8nnw3109221 0.0 1002502
06:00−9nnw4990100 0.1 1005647
09:00−10n41087100 0.1 1008647
12:00−7n4779100 0.0 1010713
15:00−5n466884 0.1 10131015
18:00−7nnw377770 0.0 1014687
21:00−10nnw388976 0.0 1016339
9 march, tue
tue900:00−12nnw24940 0.0 101790
03:00−13nw22930 0.0 101859
06:00−14nnw129314 0.0 101930
09:00−12w008553 0.0 102065
12:00−7s117599 0.0 1019400
15:00−6se238999 0.3 1019382
18:00−8ese4893100 1.4 1018447
21:00−9e51094100 3.6 1019507
10 march, wed
wed1000:00−11e51193100 1.8 1020490
03:00−12e51194100 3.3 1021521
06:00−12e51193100 1.6 1022529
09:00−13e51184100 2.0 1024470
12:00−11e51069100 0.0 1025625
15:00−8ese596198 0.0 1026861
18:00−9ese41069100 0.0 1025731
21:00−11ese51276100 0.0 1026580
11 march, thu
thu1100:00−12ese51177100 0.0 1025497
03:00−13ese51192100 0.3 1025418
06:00−13se4995100 1.6 1023405
09:00−11se4894100 3.0 1023374
12:00−8sse4891100 0.7 1021493
15:00−3sse4886100 0.8 1020726
18:00−4sse5985100 0.1 1017898
21:00−7se5139194 0.1 1015577
12 march, fri
fri1200:00−7se5149093 0.0 1013767
03:00−6se6138897 0.1 1009888
06:00−7se71589100 0.1 1005777
09:00−7se71493100 1.4 1002925
12:00−5se61292100 1.3 999929
15:00−2se61192100 2.1 997887
18:00−2se41096100 1.5 995595
21:00−3se3796100 2.3 995308